COSMOS 2251 DEB, 40233

Orbit data source: Space-Track

COSMOS 2251 DEB, 40233 is space debris in LEO originally from a launch on Wed, 16 Jun 1993 UTC launched from the Plesetsk Missile And Space Complex (PKMTR). The debris from Iridium 33, an American commercial communications satellite, has been tracked extensively since its accidental collision with the defunct Russian satellite Cosmos 2251 in 2009. This event, occurring at high speed in low Earth orbit (LEO), generated thousands of pieces of space debris, significantly increasing the risk of further collisions. The Iridium 33 debris cloud has impacted space traffic management and orbital debris mitigation strategies, making it a subject of ongoing study in space situational awareness.

Loading next visibility...
COSMOS 2251 DEB details
Identifier
40233, 1993-036BVN
Orbit
LEO
Last TLE update13 hours ago
Origin
Flag of CISKVR (CIS)
ManufacturerUnknown
MissionSpacecraft
Bus & MotorUnknown
MassUnknown
Launch date (UTC)
1993-06-16 (31 years ago)
Launch vehicleUnknown
Launch site
Plesetsk Missile And Space Complex (PKMTR)
Object type
Payload
Rocket body
Debris
Shape & HBRUnknown
Radar Cross SectionSmall (<0.1 m²)

Expand to show TLE details & history

TLE from 13 hours ago
0 COSMOS 2251 DEB
1 40233U 93036BVN 24339.58693856  .00013079  00000-0  31049-2 0  9993
2 40233  73.9427  94.7858 0051449 255.0573 104.4889 14.53162830702407
Epoch: 2024-12-04T14:05Z
Definitive object data (Epoch: 2024-12-04T14:05:11.491Z)
Latitude-0.00003°
Longitude169.60796°
Altitude727.272 km
Speed7.487 km/s
True Right ascension06h 19m 08s
True Declination0° 00' 00"
Sunlit
Object was in full shadow at TLE epoch
Visualization TLE readout
Latitude-31.49301°
Longitude158.47369°
Altitude716.194 km
Speed7.502 km/s
Apparent Right ascension08h 44m 19s
Apparent Declination-51° 42' 24"
Sunlit
Object is in full shadow
Visualization observer readout
Local Sidereal Time01:06:25
Azimuth127.784° SE
Elevation-44.467°
Doppler factor1
Orbital elements
Apogee altitude749.433 km
Perigee altitude676.467 km
Semi-major axis7,091.087 km
Eccentricity0.0051449
Inclination73.9427°
RAAN94.7858°
Arg. of periapsis255.0573°
True anomaly105.05879°
Mean anomaly104.4889°
Eccentric anomaly104.77394°
Mean motion3.63474 °/min
BSTAR0.0031049
Orbital period99.04 mins
Loading maneuver chart data...

COSMOS 2251 DEB Visibility forecast

Observer location: undefined°, undefined

Span
Click to sort rows by Start time (UTC) header in descending order
Start Az.
Max El. time (UTC)
Max El. Az.
Max El.
End time (UTC)
End Az.
8 mins2024-12-05 08:22:14.245Z163.904° S2024-12-05 08:26:14.245Z111.152° ESE28.861°2024-12-05 08:30:14.245Z43.54° NE
6 mins2024-12-05 10:05:14.245Z257.685° W2024-12-05 10:07:14.245Z291.041° WNW24.68°2024-12-05 10:11:14.245Z351.543° N
7 mins2024-12-05 18:45:14.245Z0.055° NNE2024-12-05 18:48:14.245Z65.771° ENE37.773°2024-12-05 18:52:14.245Z140.006° SSE
4 mins2024-12-05 20:27:14.245Z284.935° WNW2024-12-05 20:28:14.245Z271.062° WNW16.183°2024-12-05 20:31:14.245Z230.575° WSW
|